Location: Bletchingley
(51.2333°N, 0.1000°W)
Time: 03:57:53
(UTC+00:00)

NOSS 2-2 (E) - Pass Details

Date: 18 September 2020
Orbit: 469 x 1737 km, 63.3° (Epoch: 19 October)

Event Time Altitude Azimuth Distance (km) Brightness Sun altitude
Rises 19:11:49 0° 204° (SSW) 2,499 6.8 -10.8°
Reaches altitude 10° 19:13:54 10° 197° (SSW) 1,634 5.7 -11.1°
Maximum altitude 19:17:14 42° 125° (SE) 727 3.5 -11.6°
Drops below altitude 10° 19:21:03 10° 54° (NE) 1,868 5.7 -12.2°
Sets 19:23:35 0° 48° (NE) 2,915 6.7 -12.6°
